Location: Rounton
(54.4000°N, 1.3500°W)
Time: 08:04:20
(UTC+00:00)

Vanguard 1 Rocket - Pass Details

Date: 30 November 2021
Orbit: 651 x 4224 km, 34.3° (Epoch: 19 January)

Event Time Altitude Azimuth Distance (km) Brightness Sun altitude
Rises 08:25:19 0° 269° (W) 6,863 11.4 1.8°
Reaches altitude 10° 08:30:08 10° 260° (W) 6,281 11.3 2.3°
Maximum altitude 08:47:38 32° 208° (SSW) 5,600 11.7 4.1°
Drops below altitude 10° 09:08:01 10° 156° (SSE) 7,230 13.9 6.0°
Sets 09:14:17 0° 148° (SSE) 7,982 14.8 6.5°
